Year,Month,Day,Hour,Minute,Value (Times are PST for barometer in hPa)
2022,07,28,00,00,968.27
2022,07,28,00,01,968.27
2022,07,28,00,02,968.27
2022,07,28,00,03,968.27
2022,07,28,00,04,968.27
2022,07,28,00,05,968.27
2022,07,28,00,06,968.27
2022,07,28,00,07,968.27
2022,07,28,00,08,968.27
2022,07,28,00,09,968.27
2022,07,28,00,10,968.27
2022,07,28,00,11,968.27
2022,07,28,00,12,969.21
2022,07,28,00,13,987.06
2022,07,28,00,14,987.06
2022,07,28,00,15,987.06
2022,07,28,00,16,987.06
2022,07,28,00,17,987.06
2022,07,28,00,18,987.06
2022,07,28,00,19,987.06
2022,07,28,00,20,987.06
2022,07,28,00,21,987.06
2022,07,28,00,22,987.06
2022,07,28,00,23,987.06
2022,07,28,00,24,987.06
2022,07,28,00,25,987.06
2022,07,28,00,26,987.10
2022,07,28,00,27,987.84
2022,07,28,00,28,987.84
2022,07,28,00,29,987.84
2022,07,28,00,30,987.84
2022,07,28,00,31,986.81
2022,07,28,00,32,977.58
2022,07,28,00,33,977.58
2022,07,28,00,34,977.58
2022,07,28,00,35,977.58
2022,07,28,00,36,977.58
2022,07,28,00,37,977.58
2022,07,28,00,38,977.58
2022,07,28,00,39,977.58
2022,07,28,00,40,977.58
2022,07,28,00,41,977.58
2022,07,28,00,42,977.58
2022,07,28,00,43,977.58
2022,07,28,00,44,977.58
2022,07,28,00,45,977.58
2022,07,28,00,46,977.58
2022,07,28,00,47,977.58
2022,07,28,00,48,977.58
2022,07,28,00,49,977.58
2022,07,28,00,50,977.58
2022,07,28,00,51,977.58
2022,07,28,00,52,977.58
2022,07,28,00,53,977.58
2022,07,28,00,54,977.58
2022,07,28,00,55,977.58
2022,07,28,00,56,977.58
2022,07,28,00,57,977.58
2022,07,28,00,58,977.58
2022,07,28,00,59,977.58
2022,07,28,01,00,977.58
2022,07,28,01,01,977.58
2022,07,28,01,02,977.58
2022,07,28,01,03,977.58
2022,07,28,01,04,977.58
2022,07,28,01,05,977.58
2022,07,28,01,06,977.58
2022,07,28,01,07,977.58
2022,07,28,01,08,977.58
2022,07,28,01,09,977.58
2022,07,28,01,10,977.58
2022,07,28,01,11,977.58
2022,07,28,01,12,977.58
2022,07,28,01,13,977.58
2022,07,28,01,14,977.58
2022,07,28,01,15,977.58
2022,07,28,01,16,977.58
2022,07,28,01,17,977.58
2022,07,28,01,18,977.58
2022,07,28,01,19,977.58
2022,07,28,01,20,977.58
2022,07,28,01,21,977.58
2022,07,28,01,22,977.58
2022,07,28,01,23,977.58
2022,07,28,01,24,977.58
2022,07,28,01,25,977.58
2022,07,28,01,26,977.58
2022,07,28,01,27,977.58
2022,07,28,01,28,977.58
2022,07,28,01,29,977.58
2022,07,28,01,30,977.58
2022,07,28,01,31,977.58
2022,07,28,01,32,977.58
2022,07,28,01,33,977.58
2022,07,28,01,34,977.58
2022,07,28,01,35,977.58
2022,07,28,01,36,977.58
2022,07,28,01,37,977.58
2022,07,28,01,38,977.58
2022,07,28,01,39,977.58
2022,07,28,01,40,977.58
2022,07,28,01,41,977.58
2022,07,28,01,42,977.58
2022,07,28,01,43,977.58
2022,07,28,01,44,977.58
2022,07,28,01,45,977.58
2022,07,28,01,46,977.58
2022,07,28,01,47,977.58
2022,07,28,01,48,977.58
2022,07,28,01,49,977.58
2022,07,28,01,50,977.58
2022,07,28,01,51,977.58
2022,07,28,01,52,977.58
2022,07,28,01,53,977.58
2022,07,28,01,54,977.58
2022,07,28,01,55,977.58
2022,07,28,01,56,977.58
2022,07,28,01,57,977.58
2022,07,28,01,58,977.58
2022,07,28,01,59,977.58
2022,07,28,02,00,977.58
2022,07,28,02,01,977.58
2022,07,28,02,02,977.58
2022,07,28,02,03,977.58
2022,07,28,02,04,977.58
2022,07,28,02,05,977.58
2022,07,28,02,06,977.58
2022,07,28,02,07,977.58
2022,07,28,02,08,977.58
2022,07,28,02,09,977.58
2022,07,28,02,10,977.58
2022,07,28,02,11,977.58
2022,07,28,02,12,977.58
2022,07,28,02,13,977.58
2022,07,28,02,14,977.58
2022,07,28,02,15,977.58
2022,07,28,02,16,977.58
2022,07,28,02,17,977.58
2022,07,28,02,18,977.58
2022,07,28,02,19,977.58
2022,07,28,02,20,977.58
2022,07,28,02,21,977.58
2022,07,28,02,22,977.58
2022,07,28,02,23,977.58
2022,07,28,02,24,977.58
2022,07,28,02,25,977.58
2022,07,28,02,26,977.58
2022,07,28,02,27,977.58
2022,07,28,02,28,977.58
2022,07,28,02,29,977.58
2022,07,28,02,30,977.58
2022,07,28,02,31,977.58
2022,07,28,02,32,977.58
2022,07,28,02,33,977.58
2022,07,28,02,34,977.58
2022,07,28,02,35,977.58
2022,07,28,02,36,977.58
2022,07,28,02,37,977.58
2022,07,28,02,38,977.58
2022,07,28,02,39,977.58
2022,07,28,02,40,977.58
2022,07,28,02,41,977.58
2022,07,28,02,42,977.58
2022,07,28,02,43,977.58
2022,07,28,02,44,977.58
2022,07,28,02,45,977.58
2022,07,28,02,46,977.58
2022,07,28,02,47,977.58
2022,07,28,02,48,977.58
2022,07,28,02,49,977.58
2022,07,28,02,50,977.58
2022,07,28,02,51,977.58
2022,07,28,02,52,977.58
2022,07,28,02,53,977.58
2022,07,28,02,54,977.58
2022,07,28,02,55,977.58
2022,07,28,02,56,977.58
2022,07,28,02,57,977.58
2022,07,28,02,58,977.58
2022,07,28,02,59,977.58
2022,07,28,03,00,977.58
2022,07,28,03,01,977.58
2022,07,28,03,02,977.58
2022,07,28,03,03,977.58
2022,07,28,03,06,977.58
2022,07,28,03,07,977.58
2022,07,28,03,08,977.58
2022,07,28,03,09,977.58
2022,07,28,03,10,977.58
2022,07,28,03,11,977.58
2022,07,28,03,12,977.58
2022,07,28,03,13,977.58
2022,07,28,03,14,977.58
2022,07,28,03,15,977.58
2022,07,28,03,16,977.58
2022,07,28,03,17,977.58
2022,07,28,03,18,977.58
2022,07,28,03,19,977.58
2022,07,28,03,20,977.58
2022,07,28,03,21,977.58
2022,07,28,03,22,977.58
2022,07,28,03,23,977.58
2022,07,28,03,24,977.58
2022,07,28,03,25,977.58
2022,07,28,03,26,977.58
2022,07,28,03,27,977.58
2022,07,28,03,28,977.58
2022,07,28,03,29,977.58
2022,07,28,03,30,977.58
2022,07,28,03,31,977.58
2022,07,28,03,32,977.58
2022,07,28,03,33,977.58
2022,07,28,03,34,977.58
2022,07,28,03,35,977.58
2022,07,28,03,36,977.58
2022,07,28,03,37,977.58
2022,07,28,03,38,977.58
2022,07,28,03,39,977.58
2022,07,28,03,40,977.58
2022,07,28,03,41,977.58
2022,07,28,03,42,977.58
2022,07,28,03,43,977.58
2022,07,28,03,44,977.58
2022,07,28,03,45,977.58
2022,07,28,03,46,977.58
2022,07,28,03,47,977.58
2022,07,28,03,48,977.58
2022,07,28,03,49,977.58
2022,07,28,03,50,977.58
2022,07,28,03,51,977.58
2022,07,28,03,52,977.58
2022,07,28,03,53,977.58
2022,07,28,03,54,977.58
2022,07,28,03,55,977.58
2022,07,28,03,56,977.58
2022,07,28,03,57,977.58
2022,07,28,03,58,977.58
2022,07,28,03,59,977.58
2022,07,28,04,00,977.58
2022,07,28,04,01,977.58
2022,07,28,04,02,977.58
2022,07,28,04,03,977.58
2022,07,28,04,04,977.58
2022,07,28,04,05,977.58
2022,07,28,04,06,977.58
2022,07,28,04,07,977.58
2022,07,28,04,08,977.58
2022,07,28,04,09,977.58
2022,07,28,04,10,977.58
2022,07,28,04,11,977.58
2022,07,28,04,12,977.58
2022,07,28,04,13,977.58
2022,07,28,04,14,977.58
2022,07,28,04,15,977.58
2022,07,28,04,16,977.58
2022,07,28,04,17,977.58
2022,07,28,04,18,977.58
2022,07,28,04,19,977.58
2022,07,28,04,20,977.58
2022,07,28,04,21,977.58
2022,07,28,04,22,977.58
2022,07,28,04,23,977.58
2022,07,28,04,24,977.58
2022,07,28,04,25,977.58
2022,07,28,04,26,977.58
2022,07,28,04,27,977.58
2022,07,28,04,28,977.58
2022,07,28,04,29,977.58
2022,07,28,04,30,977.58
2022,07,28,04,31,977.58
2022,07,28,04,32,977.58
2022,07,28,04,33,977.58
2022,07,28,04,34,977.58
2022,07,28,04,35,977.58
2022,07,28,04,36,977.58
2022,07,28,04,37,977.58
2022,07,28,04,38,977.58
2022,07,28,04,39,977.58
2022,07,28,04,40,977.58
2022,07,28,04,41,977.58
2022,07,28,04,42,977.58
2022,07,28,04,43,977.58
2022,07,28,04,44,977.58
2022,07,28,04,45,977.58
2022,07,28,04,46,977.58
2022,07,28,04,47,977.58
2022,07,28,04,48,977.58
2022,07,28,04,49,971.49
2022,07,28,04,50,939.01
2022,07,28,04,51,939.01
2022,07,28,04,52,939.01
2022,07,28,04,53,939.01
2022,07,28,04,54,939.01
2022,07,28,04,55,939.01
2022,07,28,04,56,939.01
2022,07,28,04,57,939.01
2022,07,28,04,58,939.01
2022,07,28,04,59,939.01
2022,07,28,05,00,939.01
2022,07,28,05,01,939.01
2022,07,28,05,02,939.01
2022,07,28,05,03,939.01
2022,07,28,05,04,939.01
2022,07,28,05,05,939.01
2022,07,28,05,06,939.01
2022,07,28,05,07,939.01
2022,07,28,05,08,939.01
2022,07,28,05,09,939.01
2022,07,28,05,10,939.01
2022,07,28,05,11,939.01
2022,07,28,05,12,939.01
2022,07,28,05,13,939.01
2022,07,28,05,14,939.01
2022,07,28,05,15,939.01
2022,07,28,05,16,939.01
2022,07,28,05,17,939.01
2022,07,28,05,18,939.01
2022,07,28,05,19,939.01
2022,07,28,05,20,939.01
2022,07,28,05,21,939.01
2022,07,28,05,22,939.01
2022,07,28,05,23,939.01
2022,07,28,05,24,939.01
2022,07,28,05,25,939.01
2022,07,28,05,26,939.01
2022,07,28,05,27,939.01
2022,07,28,05,28,939.01
2022,07,28,05,29,939.01
2022,07,28,05,30,939.01
2022,07,28,05,31,939.01
2022,07,28,05,32,939.01
2022,07,28,05,33,939.01
2022,07,28,05,34,939.01
2022,07,28,05,35,939.01
2022,07,28,05,36,939.01
2022,07,28,05,37,939.01
2022,07,28,05,38,939.01
2022,07,28,05,39,939.01
2022,07,28,05,40,939.01
2022,07,28,05,41,939.01
2022,07,28,05,42,939.01
2022,07,28,05,43,939.01
2022,07,28,05,44,939.01
2022,07,28,05,45,939.01
2022,07,28,05,46,939.01
2022,07,28,05,47,939.01
2022,07,28,05,48,939.01
2022,07,28,05,49,939.01
2022,07,28,05,50,939.01
2022,07,28,05,51,939.01
2022,07,28,05,52,939.01
2022,07,28,05,53,939.01
2022,07,28,05,54,939.01
2022,07,28,05,55,939.01
2022,07,28,05,56,939.01
2022,07,28,05,57,939.01
2022,07,28,05,58,939.01
2022,07,28,05,59,939.01
2022,07,28,06,00,939.01
2022,07,28,06,01,939.01
2022,07,28,06,02,939.01
2022,07,28,06,03,939.01
2022,07,28,06,04,939.01
2022,07,28,06,05,939.01
2022,07,28,06,06,939.01
2022,07,28,06,07,939.01
2022,07,28,06,08,939.01
2022,07,28,06,09,939.01
2022,07,28,06,10,946.65
2022,07,28,06,11,977.21
2022,07,28,06,12,977.21
2022,07,28,06,13,977.21
2022,07,28,06,14,977.21
2022,07,28,06,15,977.21
2022,07,28,06,16,977.21
2022,07,28,06,17,977.21
2022,07,28,06,18,977.21
2022,07,28,06,19,977.21
2022,07,28,06,20,977.21
2022,07,28,06,21,977.21
2022,07,28,06,22,977.21
2022,07,28,06,23,977.21
2022,07,28,06,24,977.21
2022,07,28,06,25,977.21
2022,07,28,06,26,977.21
2022,07,28,06,27,977.21
2022,07,28,06,28,977.21
2022,07,28,06,29,977.21
2022,07,28,06,30,977.21
2022,07,28,06,31,977.21
2022,07,28,06,32,977.21
2022,07,28,06,33,977.21
2022,07,28,06,34,977.21
2022,07,28,06,35,977.21
2022,07,28,06,36,977.21
2022,07,28,06,37,977.21
2022,07,28,06,38,977.21
2022,07,28,06,39,977.21
2022,07,28,06,40,977.21
2022,07,28,06,41,977.21
2022,07,28,06,42,977.21
2022,07,28,06,43,977.21
2022,07,28,06,44,977.21
2022,07,28,06,45,977.21
2022,07,28,06,46,977.21
2022,07,28,06,47,977.21
2022,07,28,06,48,977.21
2022,07,28,06,49,977.21
2022,07,28,06,50,977.21
2022,07,28,06,51,977.21
2022,07,28,06,52,977.21
2022,07,28,06,53,977.21
2022,07,28,06,54,977.21
2022,07,28,06,55,977.21
2022,07,28,06,56,977.21
2022,07,28,06,57,977.21
2022,07,28,06,58,977.21
2022,07,28,06,59,977.21
2022,07,28,07,00,977.21
2022,07,28,07,01,977.21
2022,07,28,07,02,977.21
2022,07,28,07,03,977.21
2022,07,28,07,04,977.21
2022,07,28,07,05,977.21
2022,07,28,07,06,977.21
2022,07,28,07,07,977.21
2022,07,28,07,08,977.21
2022,07,28,07,09,977.21
2022,07,28,07,10,977.21
2022,07,28,07,11,977.21
2022,07,28,07,12,977.21
2022,07,28,07,13,977.21
2022,07,28,07,14,977.21
2022,07,28,07,15,977.21
2022,07,28,07,16,977.21
2022,07,28,07,17,977.21
2022,07,28,07,18,977.21
2022,07,28,07,19,977.21
2022,07,28,07,20,977.21
2022,07,28,07,21,977.21
2022,07,28,07,22,977.21
2022,07,28,07,23,977.21
2022,07,28,07,24,977.21
2022,07,28,07,25,977.21
2022,07,28,07,26,977.21
2022,07,28,07,27,977.21
2022,07,28,07,28,977.21
2022,07,28,07,29,977.21
2022,07,28,07,30,977.21
2022,07,28,07,31,977.21
2022,07,28,07,32,977.21
2022,07,28,07,33,977.21
2022,07,28,07,34,977.21
2022,07,28,07,35,977.21
2022,07,28,07,36,977.21
2022,07,28,07,37,977.21
2022,07,28,07,38,977.21
2022,07,28,07,39,977.21
2022,07,28,07,40,977.21
2022,07,28,07,41,977.21
2022,07,28,07,42,977.21
2022,07,28,07,43,977.21
2022,07,28,07,44,977.21
2022,07,28,07,45,977.21
2022,07,28,07,46,977.21
2022,07,28,07,47,977.21
2022,07,28,07,48,977.21
2022,07,28,07,49,977.21
2022,07,28,07,50,977.21
2022,07,28,07,51,977.21
2022,07,28,07,52,977.21
2022,07,28,07,53,977.21
2022,07,28,07,54,977.21
2022,07,28,07,55,977.21
2022,07,28,07,56,977.21
2022,07,28,07,57,977.21
2022,07,28,07,58,977.21
2022,07,28,07,59,977.21
2022,07,28,08,00,977.21
2022,07,28,08,01,977.21
2022,07,28,08,02,977.21
2022,07,28,08,03,977.21
2022,07,28,08,04,977.21
2022,07,28,08,05,977.21
2022,07,28,08,06,977.21
2022,07,28,08,07,977.21
2022,07,28,08,08,977.21
2022,07,28,08,09,977.21
2022,07,28,08,10,977.21
2022,07,28,08,11,977.21
2022,07,28,08,12,977.21
2022,07,28,08,13,977.21
2022,07,28,08,14,977.21
2022,07,28,08,15,977.21
2022,07,28,08,16,977.21
2022,07,28,08,17,977.21
2022,07,28,08,18,977.21
2022,07,28,08,19,977.21
2022,07,28,08,20,977.21
2022,07,28,08,21,977.21
2022,07,28,08,22,977.21
2022,07,28,08,23,977.21
2022,07,28,08,24,977.21
2022,07,28,08,25,977.21
2022,07,28,08,26,977.21
2022,07,28,08,27,977.21
2022,07,28,08,28,977.21
2022,07,28,08,29,977.21
2022,07,28,08,30,977.21
2022,07,28,08,31,977.21
2022,07,28,08,32,977.21
2022,07,28,08,33,977.21
2022,07,28,08,34,977.21
2022,07,28,08,35,977.21
2022,07,28,08,36,977.21
2022,07,28,08,37,977.21
2022,07,28,08,38,977.21
2022,07,28,08,39,977.21
2022,07,28,08,40,977.21
2022,07,28,08,41,977.21
2022,07,28,08,42,977.21
2022,07,28,08,43,977.21
2022,07,28,08,44,977.21
2022,07,28,08,45,977.21
2022,07,28,08,46,977.21
2022,07,28,08,47,977.21
2022,07,28,08,48,977.21
2022,07,28,08,49,977.21
2022,07,28,08,50,977.21
2022,07,28,08,51,977.21
2022,07,28,08,52,977.21
2022,07,28,08,53,977.21
2022,07,28,08,54,977.21
2022,07,28,08,55,977.21
2022,07,28,08,56,977.21
2022,07,28,08,57,977.21
2022,07,28,08,58,977.21
2022,07,28,08,59,977.21
2022,07,28,09,00,977.21
2022,07,28,09,01,977.21
2022,07,28,09,02,977.21
2022,07,28,09,03,977.21
2022,07,28,09,04,977.21
2022,07,28,09,05,977.21
2022,07,28,09,06,977.21
2022,07,28,09,07,977.21
2022,07,28,09,08,977.21
2022,07,28,09,09,977.21
2022,07,28,09,10,977.21
2022,07,28,09,11,977.21
2022,07,28,09,12,977.21
2022,07,28,09,13,977.21
2022,07,28,09,14,977.21
2022,07,28,09,15,977.21
2022,07,28,09,16,977.21
2022,07,28,09,17,977.21
2022,07,28,09,18,977.21
2022,07,28,09,19,977.21
2022,07,28,09,20,977.21
2022,07,28,09,21,977.21
2022,07,28,09,22,977.21
2022,07,28,09,23,977.21
2022,07,28,09,24,977.21
2022,07,28,09,25,977.21
2022,07,28,09,26,977.21
2022,07,28,09,27,977.21
2022,07,28,09,28,977.21
2022,07,28,09,29,977.21
2022,07,28,09,30,977.21
2022,07,28,09,31,977.21
2022,07,28,09,32,977.21
2022,07,28,09,33,977.21
2022,07,28,09,34,977.21
2022,07,28,09,35,977.21
2022,07,28,09,36,977.21
2022,07,28,09,37,977.21
2022,07,28,09,38,977.21
2022,07,28,09,39,977.21
2022,07,28,09,40,977.21
2022,07,28,09,41,977.21
2022,07,28,09,42,977.21
2022,07,28,09,43,977.21
2022,07,28,09,44,977.21
2022,07,28,09,45,977.21
2022,07,28,09,46,977.21
2022,07,28,09,47,977.21
2022,07,28,09,48,977.21
2022,07,28,09,49,977.21
2022,07,28,09,50,977.21
2022,07,28,09,51,977.21
2022,07,28,09,52,977.21
2022,07,28,09,53,977.21
2022,07,28,09,54,977.21
2022,07,28,09,55,977.21
2022,07,28,09,56,977.21
2022,07,28,09,57,977.21
2022,07,28,09,58,977.21
2022,07,28,09,59,977.21
2022,07,28,10,00,977.21
2022,07,28,10,01,977.21
2022,07,28,10,02,977.21
2022,07,28,10,03,977.21
2022,07,28,10,04,977.21
2022,07,28,10,05,977.21
2022,07,28,10,06,977.21
2022,07,28,10,07,977.21
2022,07,28,10,08,977.21
2022,07,28,10,09,977.21
2022,07,28,10,10,977.21
2022,07,28,10,11,977.21
2022,07,28,10,12,977.21
2022,07,28,10,13,977.21
2022,07,28,10,14,977.21
2022,07,28,10,15,977.21
2022,07,28,10,16,977.21
2022,07,28,10,17,977.21
2022,07,28,10,18,977.21
2022,07,28,10,19,977.21
2022,07,28,10,20,977.21
2022,07,28,10,21,977.21
2022,07,28,10,22,977.21
2022,07,28,10,23,977.21
2022,07,28,10,24,977.21
2022,07,28,10,25,977.21
2022,07,28,10,26,977.21
2022,07,28,10,27,977.21
2022,07,28,10,28,977.21
2022,07,28,10,29,977.21
2022,07,28,10,30,977.21
2022,07,28,10,31,977.21
2022,07,28,10,32,977.21
2022,07,28,10,33,977.21
2022,07,28,10,34,977.21
2022,07,28,10,35,977.21
2022,07,28,10,36,977.21
2022,07,28,10,37,977.21
2022,07,28,10,38,977.21
2022,07,28,10,39,976.40
2022,07,28,10,40,969.55
2022,07,28,10,41,970.10
2022,07,28,10,42,969.97
2022,07,28,10,43,970.34
2022,07,28,10,44,970.08
2022,07,28,10,45,969.80
2022,07,28,10,46,969.45
2022,07,28,10,47,969.22
2022,07,28,10,48,969.22
2022,07,28,10,49,969.22
2022,07,28,10,50,969.07
2022,07,28,10,51,968.15
2022,07,28,10,52,967.87
2022,07,28,10,53,967.93
2022,07,28,10,54,967.89
2022,07,28,10,55,967.66
2022,07,28,10,56,967.72
2022,07,28,10,57,967.97
2022,07,28,10,58,967.74
2022,07,28,10,59,967.84
2022,07,28,11,00,967.91
2022,07,28,11,01,968.02
2022,07,28,11,02,967.98
2022,07,28,11,03,968.28
2022,07,28,11,04,968.58
2022,07,28,11,05,968.58
2022,07,28,11,06,968.58
2022,07,28,11,07,968.58
2022,07,28,11,08,968.16
2022,07,28,11,09,965.76
2022,07,28,11,10,965.76
2022,07,28,11,11,965.76
2022,07,28,11,12,966.14
2022,07,28,11,13,968.31
2022,07,28,11,14,968.53
2022,07,28,11,15,968.63
2022,07,28,11,16,968.56
2022,07,28,11,17,968.53
2022,07,28,11,18,968.90
2022,07,28,11,19,969.17
2022,07,28,11,20,969.29
2022,07,28,11,21,969.29
2022,07,28,11,22,969.14
2022,07,28,11,23,968.29
2022,07,28,11,24,968.23
2022,07,28,11,25,968.20
2022,07,28,11,26,968.21
2022,07,28,11,27,968.23
2022,07,28,11,28,968.16
2022,07,28,11,29,968.07
2022,07,28,11,30,967.83
2022,07,28,11,31,966.44
2022,07,28,11,32,966.13
2022,07,28,11,33,964.30
2022,07,28,11,34,963.95
2022,07,28,11,35,964.41
2022,07,28,11,36,964.30
2022,07,28,11,37,963.21
2022,07,28,11,38,962.76
2022,07,28,11,39,962.91
2022,07,28,11,40,962.67
2022,07,28,11,41,962.65
2022,07,28,11,42,962.79
2022,07,28,11,43,963.97
2022,07,28,11,44,963.97
2022,07,28,11,45,963.88
2022,07,28,11,46,963.39
2022,07,28,11,47,963.39
2022,07,28,11,48,963.39
2022,07,28,11,49,963.39
2022,07,28,11,50,963.39
2022,07,28,11,51,964.45
2022,07,28,11,52,970.47
2022,07,28,11,53,970.29
2022,07,28,11,54,969.27
2022,07,28,11,55,969.17
2022,07,28,11,56,969.18
2022,07,28,11,57,969.63
2022,07,28,11,58,969.11
2022,07,28,11,59,969.02
2022,07,28,12,00,968.74
2022,07,28,12,01,968.74
2022,07,28,12,02,968.74
2022,07,28,12,03,968.74
2022,07,28,12,04,968.39
2022,07,28,12,05,966.37
2022,07,28,12,06,966.37
2022,07,28,12,07,966.37
2022,07,28,12,08,966.37
2022,07,28,12,09,966.37
2022,07,28,12,10,966.37
2022,07,28,12,11,966.37
2022,07,28,12,12,966.37
2022,07,28,12,13,966.37
2022,07,28,12,14,966.37
2022,07,28,12,15,966.37
2022,07,28,12,16,966.37
2022,07,28,12,17,964.78
2022,07,28,12,18,950.42
2022,07,28,12,19,950.42
2022,07,28,12,20,950.42
2022,07,28,12,21,950.42
2022,07,28,12,22,950.42
2022,07,28,12,23,950.42
2022,07,28,12,24,950.42
2022,07,28,12,25,950.42
2022,07,28,12,26,950.42
2022,07,28,12,27,950.42
2022,07,28,12,28,950.42
2022,07,28,12,29,950.42
2022,07,28,12,30,950.48
2022,07,28,12,31,950.79
2022,07,28,12,32,950.42
2022,07,28,12,33,950.42
2022,07,28,12,34,950.48
2022,07,28,12,35,950.83
2022,07,28,12,36,950.83
2022,07,28,12,37,950.83
2022,07,28,12,38,950.83
2022,07,28,12,39,950.80
2022,07,28,12,40,950.53
2022,07,28,12,41,950.53
2022,07,28,12,42,950.53
2022,07,28,12,43,950.53
2022,07,28,12,44,950.53
2022,07,28,12,45,950.53
2022,07,28,12,46,950.53
2022,07,28,12,47,949.64
2022,07,28,12,48,941.65
2022,07,28,12,49,941.65
2022,07,28,12,50,941.65
2022,07,28,12,51,941.65
2022,07,28,12,52,941.65
2022,07,28,12,53,941.65
2022,07,28,12,54,941.65
2022,07,28,12,55,941.65
2022,07,28,12,56,941.65
2022,07,28,12,57,941.65
2022,07,28,12,58,941.65
2022,07,28,12,59,941.65
2022,07,28,13,00,941.65
2022,07,28,13,01,941.65
2022,07,28,13,02,941.65
2022,07,28,13,03,941.65
2022,07,28,13,04,941.65
2022,07,28,13,05,941.65
2022,07,28,13,06,941.65
2022,07,28,13,07,941.65
2022,07,28,13,08,941.65
2022,07,28,13,09,941.65
2022,07,28,13,10,941.65
2022,07,28,13,11,941.65
2022,07,28,13,12,941.65
2022,07,28,13,13,941.65
2022,07,28,13,14,941.65
2022,07,28,13,15,941.65
2022,07,28,13,16,941.65
2022,07,28,13,17,941.65
2022,07,28,13,18,941.65
2022,07,28,13,19,941.65
2022,07,28,13,20,941.65
2022,07,28,13,21,941.65
2022,07,28,13,22,941.65
2022,07,28,13,23,941.65
2022,07,28,13,24,941.65
2022,07,28,13,25,941.65
2022,07,28,13,26,941.65
2022,07,28,13,27,941.65
2022,07,28,13,28,941.65
2022,07,28,13,29,941.65
2022,07,28,13,30,941.65
2022,07,28,13,31,941.65
2022,07,28,13,32,941.65
2022,07,28,13,33,941.65
2022,07,28,13,34,941.65
2022,07,28,13,35,941.65
2022,07,28,13,36,941.65
2022,07,28,13,37,941.69
2022,07,28,13,38,941.69
2022,07,28,13,39,941.72
2022,07,28,13,40,941.76
2022,07,28,13,41,941.72
2022,07,28,13,42,941.76
2022,07,28,13,43,941.76
2022,07,28,13,44,941.76
2022,07,28,13,45,941.76
2022,07,28,13,46,941.76
2022,07,28,13,47,941.76
2022,07,28,13,48,941.76
2022,07,28,13,49,941.76
2022,07,28,13,50,941.76
2022,07,28,13,51,941.76
2022,07,28,13,52,941.76
2022,07,28,13,53,941.76
2022,07,28,13,54,941.76
2022,07,28,13,55,941.76
2022,07,28,13,56,941.76
2022,07,28,13,57,941.76
2022,07,28,13,58,941.76
2022,07,28,13,59,941.76
2022,07,28,14,00,941.76
2022,07,28,14,01,941.76
2022,07,28,14,02,941.76
2022,07,28,14,03,941.76
2022,07,28,14,04,941.76
2022,07,28,14,05,941.76
2022,07,28,14,06,941.76
2022,07,28,14,07,941.76
2022,07,28,14,08,941.76
2022,07,28,14,09,941.76
2022,07,28,14,10,941.76
2022,07,28,14,11,941.76
2022,07,28,14,12,941.76
2022,07,28,14,13,941.76
2022,07,28,14,14,941.76
2022,07,28,14,15,941.76
2022,07,28,14,16,941.76
2022,07,28,14,17,941.76
2022,07,28,14,18,941.76
2022,07,28,14,19,941.76
2022,07,28,14,20,941.76
2022,07,28,14,21,941.76
2022,07,28,14,22,941.76
2022,07,28,14,23,941.76
2022,07,28,14,24,941.76
2022,07,28,14,25,941.76
2022,07,28,14,26,941.76
2022,07,28,14,27,941.76
2022,07,28,14,28,941.76
2022,07,28,14,29,941.76
2022,07,28,14,30,941.76
2022,07,28,14,31,941.76
2022,07,28,14,32,941.76
2022,07,28,14,33,941.76
2022,07,28,14,34,941.76
2022,07,28,14,35,941.76
2022,07,28,14,36,941.76
2022,07,28,14,37,941.76
2022,07,28,14,38,941.76
2022,07,28,14,39,941.76
2022,07,28,14,40,941.76
2022,07,28,14,41,941.76
2022,07,28,14,42,941.76
2022,07,28,14,43,941.76
2022,07,28,14,44,941.76
2022,07,28,14,45,941.76
2022,07,28,14,46,941.76
2022,07,28,14,47,941.76
2022,07,28,14,48,941.76
2022,07,28,14,49,941.76
2022,07,28,14,50,941.76
2022,07,28,14,51,941.76
2022,07,28,14,52,941.76
2022,07,28,14,53,941.76
2022,07,28,14,54,941.76
2022,07,28,14,55,941.76
2022,07,28,14,56,941.76
2022,07,28,14,57,941.76
2022,07,28,14,58,941.76
2022,07,28,14,59,941.76
2022,07,28,15,00,941.76
2022,07,28,15,01,941.76
2022,07,28,15,02,941.76
2022,07,28,15,03,941.76
2022,07,28,15,04,941.76
2022,07,28,15,05,941.76
2022,07,28,15,06,941.76
2022,07,28,15,07,941.76
2022,07,28,15,08,941.76
2022,07,28,15,09,941.76
2022,07,28,15,10,941.76
2022,07,28,15,11,941.76
2022,07,28,15,12,941.76
2022,07,28,15,13,941.76
2022,07,28,15,14,941.76
2022,07,28,15,15,941.76
2022,07,28,15,16,941.76
2022,07,28,15,17,941.76
2022,07,28,15,18,941.76
2022,07,28,15,19,941.76
2022,07,28,15,20,941.76
2022,07,28,15,21,941.76
2022,07,28,15,22,941.76
2022,07,28,15,23,941.76
2022,07,28,15,24,941.76
2022,07,28,15,25,941.76
2022,07,28,15,26,941.76
2022,07,28,15,27,941.76
2022,07,28,15,28,941.76
2022,07,28,15,29,941.76
2022,07,28,15,30,941.76
2022,07,28,15,31,941.76
2022,07,28,15,32,941.76
2022,07,28,15,33,941.76
2022,07,28,15,34,941.76
2022,07,28,15,35,941.76
2022,07,28,15,36,941.76
2022,07,28,15,37,941.76
2022,07,28,15,38,941.76
2022,07,28,15,39,941.76
2022,07,28,15,40,941.76
2022,07,28,15,41,941.76
2022,07,28,15,42,941.76
2022,07,28,15,43,941.76
2022,07,28,15,44,941.76
2022,07,28,15,45,941.76
2022,07,28,15,46,941.76
2022,07,28,15,47,941.76
2022,07,28,15,48,941.76
2022,07,28,15,49,941.76
2022,07,28,15,50,941.76
2022,07,28,15,51,941.76
2022,07,28,15,52,941.76
2022,07,28,15,53,941.76
2022,07,28,15,54,941.76
2022,07,28,15,55,941.76
2022,07,28,15,56,941.76
2022,07,28,15,57,941.76
2022,07,28,15,58,941.76
2022,07,28,15,59,941.76
2022,07,28,16,00,941.76
2022,07,28,16,01,941.76
2022,07,28,16,02,941.76
2022,07,28,16,03,941.76
2022,07,28,16,04,941.76
2022,07,28,16,05,941.76
2022,07,28,16,06,941.76
2022,07,28,16,07,941.76
2022,07,28,16,08,941.76
2022,07,28,16,09,941.76
2022,07,28,16,10,941.76
2022,07,28,16,11,941.76
2022,07,28,16,12,941.76
2022,07,28,16,13,941.76
2022,07,28,16,14,941.76
2022,07,28,16,15,941.76
2022,07,28,16,16,941.76
2022,07,28,16,17,941.76
2022,07,28,16,18,941.76
2022,07,28,16,19,941.76
2022,07,28,16,20,941.76
2022,07,28,16,21,941.76
2022,07,28,16,22,941.76
2022,07,28,16,23,941.76
2022,07,28,16,24,941.76
2022,07,28,16,25,941.76
2022,07,28,16,26,941.72
2022,07,28,16,27,941.69
2022,07,28,16,28,941.69
2022,07,28,16,29,941.65
2022,07,28,16,30,941.65
2022,07,28,16,31,941.65
2022,07,28,16,32,941.65
2022,07,28,16,33,941.65
2022,07,28,16,34,941.65
2022,07,28,16,35,941.65
2022,07,28,16,36,941.65
2022,07,28,16,37,941.65
2022,07,28,16,38,941.65